Location: Karlsruhe
(49.0131°N, 8.3874°E)
Time: 15:59:11
(UTC+01:00)

ISS - Visible Passes

Search period start: 23 November 2017 00:00
Search period end: 03 December 2017 00:00
Orbit: 402 x 407 km, 51.6° (Epoch: 24 November)

Date Brightness Start Highest point End Pass type
(mag) Time Alt. Az. Time Alt. Az. Time Alt. Az.
27 Nov -1.1 19:07:17 10° SSW 19:07:51 13° SSW 19:07:51 13° SSW visible
28 Nov -1.9 18:15:42 10° S 18:17:50 18° SE 18:17:50 18° SE visible
29 Nov -1.3 17:25:08 10° SSE 17:25:53 11° SE 17:26:37 10° ESE visible
29 Nov -2.1 18:58:32 10° SW 19:00:25 30° SSW 19:00:25 30° SSW visible
30 Nov -2.8 18:06:28 10° SSW 18:09:27 33° SE 18:10:15 28° ESE visible
30 Nov -0.4 19:42:31 10° W 19:42:54 13° W 19:42:54 13° W visible
01 Dec -2.0 17:14:41 10° SSW 17:17:13 21° SE 17:19:46 10° E visible
01 Dec -3.1 18:50:05 10° WSW 18:52:40 52° WSW 18:52:40 52° WSW visible
02 Dec -3.6 17:57:45 10° SW 18:00:59 61° SSE 18:02:23 30° E visible
02 Dec -0.7 19:34:18 10° W 19:35:02 16° W 19:35:02 16° W visible
